COSMOS 1275 DEB, 17626

Orbit data source: Space-Track

COSMOS 1275 DEB, 17626 is space debris in LEO originally from a launch on Thu, 04 Jun 1981 UTC launched from the Plesetsk Missile And Space Complex (PKMTR). Debris objects in space refer to the collection of defunct objects orbiting the Earth. Examples of debris include non-operational satellites, rocket bodies, and fragments generated from explosions, collisions, or faulty payload assembly.

Loading next visibility...
Identifier
17626, 1981-053KV
Orbit
LEO
Country
Flag of CISCIS
Related business
Manufacturer
Unknown
Mission
Spacecraft
Bus & Motor
Unknown
Mass
Unknown
Launch date (UTC)
1981-06-04 (45 years ago)
Launch vehicle
Unknown
Launch site
Plesetsk Missile And Space Complex (PKMTR)
Object type
Payload
Rocket body
Debris
Shape & HBR
Unknown shape, 0.1 m
Radar Cross Section
Medium (>0.1 m² and <1 m²)

Expand to show TLE details & history
Last TLE update: 20 hours ago

TLE from 20 hours ago
0 COSMOS 1275 DEB
1 17626U 81053KV  26254.58898421  .00000460  00000-0  51875-3 0  9992
2 17626  82.8632  90.1747 0140916  22.3874  41.3819 13.64567046 51181
Epoch: 2026-09-11T14:08Z
TLE epoch observation values (Epoch: 2026-09-11T14:08:08.235Z)
Latitude
64.00958°
Longitude
-97.66757°
Altitude
952.588 km
Speed
7.42 km/s
True Right ascension
06h 59m 54s
True Declination
63° 52' 39"
Sunlit
Object was in daylight at epoch
Visualization orbit readout
Latitude
Unknown
Longitude
Unknown
Altitude
Unknown
Speed
Unknown
Apparent Right ascension
Unknown
Apparent Declination
Unknown
Sunlit
N/A
Visualization observer readout
Local Sidereal Time
02:53:47
Azimuth
Unknown
Elevation
Unknown
Doppler factor
Unknown
Orbital elements
Apogee altitude
1,120.506 km
Perigee altitude
912.107 km
Semi-major axis
7,394.443 km
Eccentricity
0.01409
Inclination
82.8632°
RAAN
90.1747°
Arg. of periapsis
22.3874°
True anomaly
42.46361°
Mean anomaly
41.3819°
Eccentric anomaly
41.92132°
Mean motion
3.41338 °/min
Orbital period
105.47 mins
BSTAR
0.00051875
Loading maneuver chart data...
Computing Atmospheric mass density...
Loading historical data...
Loading historical data...
Loading historical data...
Loading historical data...
Loading historical data...
Loading historical data...
Loading historical data...

Documentation

Showing up to 5 results
|